When you browse on this site, cookies collect data to enhance your experience and personalize the content and advertising you see.
Visit our Privacy Policy to learn more. By continuing to use the site, you agree to this use of cookies and data.
  • In Latvia
  • List of Countries
  • For 7 days
  • Water Temperature
  • Satellite Maps
  • Weather Map
  • Weather Widgets
  • user-avatar
    Login

    Hourly Weather Monthey

    Today, 17 July, Wednesday

    Time Temperature Precipitation Wind Pressure Humidity
    00:00 +15°C° 0 mm 1 mps 698 mmHg 82%
    01:00 +15°C° 0 mm 1 mps 698 mmHg 82%
    02:00 +15°C° 0 mm 1 mps 698 mmHg 82%
    03:00 +15°C° 0 mm 1 mps 697 mmHg 82%
    04:00 +16°C° 0 mm 1 mps 698 mmHg 78%
    05:00 +18°C° 0 mm 1 mps 698 mmHg 74%
    06:00 +18°C° 0 mm 0 mps 698 mmHg 70%
    07:00 +22°C° 0 mm 1 mps 698 mmHg 63%
    08:00 +24°C° 0 mm 1 mps 698 mmHg 57%
    09:00 +25°C° 0 mm 1 mps 699 mmHg 50%
    10:00 +26°C° 0 mm 2 mps 698 mmHg 50%
    11:00 +26°C° 0 mm 2 mps 698 mmHg 49%
    12:00 +26°C° 0 mm 2 mps 698 mmHg 49%
    13:00 +26°C° 0.2 mm 2 mps 698 mmHg 51%
    14:00 +26°C° 0.2 mm 2 mps 698 mmHg 54%
    15:00 +25°C° 0.2 mm 2 mps 698 mmHg 57%
    16:00 +24°C° 0.2 mm 1 mps 697 mmHg 63%
    17:00 +23°C° 0.2 mm 1 mps 697 mmHg 69%
    18:00 +23°C° 0.2 mm 1 mps 697 mmHg 75%
    19:00 +21°C° 0 mm 1 mps 697 mmHg 79%
    20:00 +17°C° 0 mm 0 mps 697 mmHg 84%
    21:00 +15°C° 0 mm 0 mps 697 mmHg 89%
    22:00 +15°C° 0 mm 0 mps 697 mmHg 89%
    23:00 +15°C° 0 mm 0 mps 697 mmHg 89%

    Tomorrow, 18 July, Thursday

    Time Temperature Precipitation Wind Pressure Humidity
    00:00 +15°C° 0 mm 1 mps 696 mmHg 89%
    01:00 +14°C° 0 mm 0 mps 696 mmHg 89%
    02:00 +14°C° 0 mm 0 mps 696 mmHg 88%
    03:00 +14°C° 0 mm 0 mps 696 mmHg 88%
    04:00 +15°C° 0 mm 0 mps 696 mmHg 85%
    05:00 +16°C° 0 mm 0 mps 697 mmHg 82%
    06:00 +17°C° 0 mm 0 mps 697 mmHg 80%
    07:00 +19°C° 0 mm 0 mps 697 mmHg 71%
    08:00 +23°C° 0 mm 1 mps 697 mmHg 61%
    09:00 +24°C° 0 mm 1 mps 698 mmHg 52%
    10:00 +25°C° 0 mm 1 mps 698 mmHg 50%
    11:00 +26°C° 0 mm 2 mps 698 mmHg 47%
    12:00 +26°C° 0 mm 2 mps 697 mmHg 44%
    13:00 +26°C° 0 mm 2 mps 697 mmHg 45%
    14:00 +26°C° 0 mm 2 mps 697 mmHg 47%
    15:00 +25°C° 0 mm 2 mps 697 mmHg 49%
    16:00 +24°C° 0 mm 2 mps 697 mmHg 57%
    17:00 +23°C° 0 mm 1 mps 697 mmHg 66%
    18:00 +22°C° 0 mm 1 mps 697 mmHg 75%
    19:00 +21°C° 0 mm 1 mps 698 mmHg 80%
    20:00 +17°C° 0 mm 0 mps 698 mmHg 85%
    21:00 +16°C° 0 mm 0 mps 698 mmHg 91%
    22:00 +15°C° 0 mm 0 mps 698 mmHg 91%
    23:00 +15°C° 0 mm 0 mps 698 mmHg 92%

    Day after tomorrow, 19 July, Friday

    Time Temperature Precipitation Wind Pressure Humidity
    00:00 +15°C° 0 mm 1 mps 698 mmHg 92%
    01:00 +15°C° 0 mm 1 mps 698 mmHg 92%
    02:00 +15°C° 0 mm 1 mps 698 mmHg 92%
    03:00 +14°C° 0 mm 1 mps 698 mmHg 93%
    04:00 +15°C° 0 mm 0 mps 698 mmHg 89%
    05:00 +16°C° 0 mm 0 mps 699 mmHg 86%
    06:00 +17°C° 0 mm 0 mps 699 mmHg 82%
    07:00 +19°C° 0 mm 0 mps 699 mmHg 74%
    08:00 +23°C° 0 mm 1 mps 700 mmHg 66%
    09:00 +25°C° 0 mm 1 mps 700 mmHg 57%
    10:00 +26°C° 0 mm 1 mps 700 mmHg 55%
    11:00 +27°C° 0 mm 2 mps 700 mmHg 53%
    12:00 +27°C° 0 mm 2 mps 700 mmHg 50%
    13:00 +27°C° 0 mm 2 mps 700 mmHg 51%
    14:00 +27°C° 0 mm 2 mps 699 mmHg 53%
    15:00 +27°C° 0 mm 2 mps 699 mmHg 54%
    16:00 +26°C° 0.1 mm 2 mps 699 mmHg 61%
    17:00 +25°C° 0.1 mm 1 mps 699 mmHg 67%
    18:00 +24°C° 0.1 mm 1 mps 699 mmHg 73%
    19:00 +22°C° 0 mm 1 mps 699 mmHg 78%
    20:00 +20°C° 0 mm 1 mps 699 mmHg 83%
    21:00 +18°C° 0 mm 1 mps 699 mmHg 87%
    22:00 +18°C° 0 mm 1 mps 699 mmHg 87%
    23:00 +18°C° 0 mm 1 mps 699 mmHg 86%

    20 July, Saturday

    Time Temperature Precipitation Wind Pressure Humidity
    00:00 +18°C° 0 mm 1 mps 699 mmHg 85%
    01:00 +17°C° 0 mm 2 mps 699 mmHg 85%
    02:00 +17°C° 0 mm 2 mps 699 mmHg 84%
    03:00 +17°C° 0 mm 2 mps 699 mmHg 83%
    04:00 +18°C° 0 mm 2 mps 699 mmHg 80%
    05:00 +20°C° 0 mm 1 mps 699 mmHg 77%
    06:00 +21°C° 0 mm 1 mps 700 mmHg 74%
    07:00 +23°C° 0 mm 1 mps 700 mmHg 65%
    08:00 +26°C° 0 mm 1 mps 701 mmHg 56%
    09:00 +28°C° 0 mm 1 mps 701 mmHg 46%
    10:00 +29°C° 0 mm 2 mps 701 mmHg 43%
    11:00 +29°C° 0 mm 2 mps 701 mmHg 40%
    12:00 +30°C° 0 mm 3 mps 701 mmHg 36%
    13:00 +30°C° 0 mm 3 mps 701 mmHg 36%
    14:00 +30°C° 0 mm 3 mps 701 mmHg 36%
    15:00 +30°C° 0 mm 3 mps 701 mmHg 35%
    16:00 +29°C° 0 mm 2 mps 701 mmHg 45%
    17:00 +27°C° 0 mm 1 mps 701 mmHg 54%
    18:00 +26°C° 0 mm 1 mps 701 mmHg 63%
    19:00 +25°C° 0 mm 1 mps 701 mmHg 65%
    20:00 +23°C° 0 mm 1 mps 701 mmHg 66%
    21:00 +22°C° 0 mm 1 mps 702 mmHg 68%
    22:00 +21°C° 0 mm 1 mps 702 mmHg 68%
    23:00 +21°C° 0 mm 1 mps 702 mmHg 69%

    21 July, Sunday

    Time Temperature Precipitation Wind Pressure Humidity
    00:00 +20°C° 0 mm 1 mps 702 mmHg 69%
    01:00 +20°C° 0 mm 1 mps 702 mmHg 70%
    02:00 +20°C° 0 mm 1 mps 702 mmHg 70%
    03:00 +19°C° 0 mm 1 mps 702 mmHg 71%
    04:00 +21°C° 0 mm 1 mps 702 mmHg 69%
    05:00 +22°C° 0 mm 1 mps 703 mmHg 68%
    06:00 +23°C° 0 mm 1 mps 703 mmHg 66%
    07:00 +25°C° 0 mm 1 mps 704 mmHg 60%
    08:00 +27°C° 0 mm 1 mps 704 mmHg 54%
    09:00 +29°C° 0 mm 1 mps 704 mmHg 48%
    10:00 +30°C° 0 mm 1 mps 704 mmHg 45%
    11:00 +31°C° 0 mm 2 mps 704 mmHg 41%
    12:00 +31°C° 0 mm 2 mps 704 mmHg 38%
    13:00 +31°C° 0 mm 2 mps 704 mmHg 38%
    14:00 +31°C° 0 mm 2 mps 704 mmHg 37%
    15:00 +31°C° 0 mm 2 mps 704 mmHg 37%
    16:00 +30°C° 0 mm 1 mps 703 mmHg 45%
    17:00 +28°C° 0 mm 1 mps 703 mmHg 54%
    18:00 +27°C° 0 mm 1 mps 703 mmHg 62%
    19:00 +25°C° 0 mm 1 mps 703 mmHg 64%
    20:00 +24°C° 0 mm 1 mps 703 mmHg 66%
    21:00 +22°C° 0 mm 1 mps 703 mmHg 68%
    22:00 +22°C° 0 mm 1 mps 703 mmHg 66%
    23:00 +21°C° 0 mm 1 mps 703 mmHg 65%

    22 July, Monday

    Time Temperature Precipitation Wind Pressure Humidity
    00:00 +21°C° 0 mm 1 mps 703 mmHg 64%
    01:00 +21°C° 0 mm 1 mps 703 mmHg 63%
    02:00 +21°C° 0 mm 1 mps 702 mmHg 62%
    03:00 +21°C° 0 mm 1 mps 702 mmHg 60%
    04:00 +22°C° 0 mm 1 mps 702 mmHg 61%
    05:00 +23°C° 0 mm 1 mps 703 mmHg 61%
    06:00 +24°C° 0 mm 1 mps 703 mmHg 61%
    07:00 +27°C° 0 mm 1 mps 703 mmHg 55%
    08:00 +29°C° 0 mm 1 mps 703 mmHg 49%
    09:00 +29°C° 0 mm 0 mps 704 mmHg 42%
    10:00 +32°C° 0 mm 1 mps 703 mmHg 41%
    11:00 +32°C° 0 mm 1 mps 703 mmHg 39%
    12:00 +34°C° 0 mm 2 mps 703 mmHg 37%
    13:00 +34°C° 0.1 mm 2 mps 703 mmHg 38%
    14:00 +34°C° 0.1 mm 2 mps 702 mmHg 40%
    15:00 +32°C° 0.1 mm 2 mps 702 mmHg 41%
    16:00 +31°C° 0.3 mm 2 mps 702 mmHg 49%
    17:00 +29°C° 0.3 mm 1 mps 702 mmHg 58%
    18:00 +28°C° 0.3 mm 1 mps 701 mmHg 66%
    19:00 +26°C° 0.2 mm 1 mps 701 mmHg 69%
    20:00 +24°C° 0.2 mm 1 mps 701 mmHg 73%
    21:00 +22°C° 0.2 mm 1 mps 701 mmHg 76%
    22:00 +22°C° 0 mm 1 mps 701 mmHg 77%
    23:00 +22°C° 0 mm 1 mps 701 mmHg 78%
    Show more